Overview Statistics Trail Chart Weather Telemetry Raw packets
 

This is the latest recevied weather packets stored in our database for station/object KD7CTY. If no packets are shown the sender has not sent any weather packets the latest 10 day(s).

<< 108 109 110 111 112 113 114 >>
Time Temp. Humidity Pressure Rain* Wind** Luminosity Snow
1787782298 25° C 56% 1015 hPa 0 mm - 608 W/m² -
1787781994 24.44° C 56% 1015.1 hPa 0 mm - 614 W/m² -
1787781689 24.44° C 57% 1015.3 hPa 0 mm - 611 W/m² -
1787781386 25° C 54% 1015.2 hPa 0 mm - 615 W/m² -
1787781085 24.44° C 57% 1015.4 hPa 0 mm - 628 W/m² -
1787780784 25° C 56% 1015.3 hPa 0 mm - 629 W/m² -
1787780479 23.33° C 57% 1015.5 hPa 0 mm - 633 W/m² -
1787780176 22.78° C 60% 1015.4 hPa 0 mm - 636 W/m² -
1787779870 22.78° C 58% 1015.5 hPa 0 mm - 646 W/m² -
1787779570 23.33° C 58% 1015.5 hPa 0 mm - 650 W/m² -
1787779264 23.89° C 58% 1015.5 hPa 0 mm - 652 W/m² -
1787778959 23.89° C 59% 1015.6 hPa 0 mm - 645 W/m² -
1787778655 23.89° C 58% 1015.7 hPa 0 mm - 641 W/m² -
1787778349 23.33° C 62% 1015.7 hPa 0 mm - 652 W/m² -
1787778046 22.78° C 62% 1015.5 hPa 0 mm - 664 W/m² -
1787777739 21.67° C 62% 1015.7 hPa 0 mm - 670 W/m² -
1787777437 22.78° C 62% 1015.7 hPa 0 mm - 680 W/m² -
1787777137 22.78° C 61% 1015.7 hPa 0 mm - 688 W/m² -
1787776835 22.78° C 62% 1015.8 hPa 0 mm - 698 W/m² -
1787776534 21.67° C 64% 1015.7 hPa 0 mm - 701 W/m² -
1787776233 21.67° C 64% 1015.8 hPa 0 mm - 717 W/m² -
1787775932 22.78° C 64% 1015.9 hPa 0 mm - 727 W/m² -
1787775627 22.22° C 64% 1015.9 hPa 0 mm - 740 W/m² -
1787775326 22.22° C 65% 1015.9 hPa 0 mm - 753 W/m² -
1787775026 21.11° C 68% 1015.9 hPa 0 mm - 764 W/m² -

* Rain latest hour (hover to see other rain measurements)
** Current wind speed in m/s (hover to see current wind gust speed)